Weather in Storozhevsk

Russia / Komi Republic     61°56′24″N   52°18′56″E
temp.,
°C
wind,
m/s
gust,
m/s
humid.,
%
clouds,
%
prec.,
mm/h
press.,
hPa
HPBL,
m
22 may, sun
sun2200:000nne41197100 1.0 1005643
03:000nne41098100 2.2 1004541
06:00+1nne41094100 0.8 1002653
09:00+2nne41096100 1.3 1000697
12:00+2nne51196100 1.3 999745
15:00+2n41297100 3.9 998691
18:00+1n41098100 1.9 997634
21:00+1n3898100 3.4 995717
23 may, mon
mon2300:000n3999100 3.3 993568
03:000n3799100 4.3 992414
06:00+1n13100100 1.0 992153
09:00+1se1299100 1.8 992278
12:00+3sse249377 0.5 994513
15:00+5sse347995 1.1 9951085
18:00+5sse258786 0.7 997443
21:000ese259724 0.8 99980
24 may, tue
tue2400:00−2e249820 0.0 100173
03:00−1e2698100 0.0 1003115
06:00+4ese249043 0.0 1004298
09:00+7ese3476100 0.4 1005976
12:00+8ese3577100 1.1 10061101
15:00+8ese3482100 2.1 1007874
18:00+6se2391100 0.8 1009125
21:00+5ese2396100 1.3 101091
25 may, wed
wed2500:00+2ese22975 0.0 101122
03:00+1e239811 0.0 101148
06:00+6e249195 0.0 1011347
09:00+10e347696 0.0 1010838
12:00+12e4563100 0.8 10101431
15:00+13e3457100 1.0 10091441
18:00+11e248358 0.9 1009300
21:00+7ne219517 1.6 100914
26 may, thu
thu2600:00+6nne1197100 0.0 100713
03:00+5nnw1197100 0.0 100710
06:00+8ne1296100 0.0 1005177
09:00+8ne1397100 0.6 1004185
12:00+8nne1296100 0.5 1003172
15:00+9n0197100 0.6 1002130
18:00+8wnw1198100 0.0 100061
21:00+7ssw1299100 0.0 99873